Sarasota, FL

12:46 PM EDT on October 14, 2019 (GMT -0400)
Sarasota-bradenton

Weather History for KSRQ - August, 2019

Change the Weather History Date:

Tuesday, August 27, 2019

  Actual Average Record
Temperature  
Mean Temperature 83 °F 82 °F  
Max Temperature 89 °F 90 °F 97 °F (1923)
Min Temperature 77 °F 75 °F 65 °F (1930)
Degree Days  
Heating Degree Days 0 0  
Month to date heating degree days 0 0  
Since 1 June heating degree days 0 0  
Since 1 July heating degree days 0 0  
Cooling Degree Days 18 17  
Month to date cooling degree days 501 459  
Year to date cooling degree days 2772 2221  
Since 1 June cooling degree days 1615 1470  
Growing Degree Days 33 (Base 50)    
Moisture  
Dew Point 77 °F    
Average Humidity 79    
Maximum Humidity 91    
Minimum Humidity 70    
Precipitation  
Precipitation T in 0.29 in 4.32 in (2017)
Month to date precipitation 12.42 7.98  
Year to date precipitation 40.95 37.17  
Sea Level Pressure  
Sea Level Pressure 29.96 in    
Wind  
Wind Speed 6 mph ()    
Max Wind Speed 23 mph    
Max Gust Speed 28 mph    
Visibility 10.0 miles    
Events Rain , Thunderstorm    
T = Trace of Precipitation, MM = Missing Value Source: Averaged Metar Reports

Daily Weather History Graph

Daily Weather History Graph

Search for Another Location

Airport or City:

Astronomy

Aug. 27, 2019 Rise Set
Actual Time 7:06 AM EDT 7:56 PM EDT
Civil Twilight 6:42 AM EDT 8:20 PM EDT
Nautical Twilight 6:14 AM EDT 8:48 PM EDT
Astronomical Twilight 5:45 AM EDT 9:16 PM EDT
Moon 3:49 AM EDT (8/27) 5:58 PM EDT (8/27)
Length of Visible Light 13h 37m
Length of Day
12h 49m
Waning Crescent, 11% of the Moon is Illuminated
Aug 27
Waning Crescent
Aug 30
New
Sep 5
First Quarter
Sep 14
Full
Sep 21
Last Quarter

Hourly Weather History & Observations

Time (EDT) Temp. Heat Index Dew Point Humidity Pressure Visibility Wind Dir Wind Speed Gust Speed Precip Events Conditions
12:53 AM 80.1 °F 85.4 °F 75.9 °F 87% 29.99 in 10.0 mi ESE 5.8 mph - N/A   Partly Cloudy
1:53 AM 78.1 °F - 75.0 °F 90% 29.96 in 10.0 mi SE 5.8 mph - N/A   Clear
2:53 AM 78.1 °F - 75.0 °F 90% 29.94 in 10.0 mi SE 4.6 mph - N/A   Clear
3:53 AM 78.1 °F - 73.9 °F 87% 29.93 in 10.0 mi ESE 4.6 mph - N/A   Clear
4:53 AM 77.0 °F - 73.9 °F 90% 29.92 in 10.0 mi ESE 4.6 mph - N/A   Clear
5:53 AM 78.1 °F - 75.0 °F 90% 29.92 in 10.0 mi East 4.6 mph - N/A   Scattered Clouds
6:53 AM 78.1 °F - 75.0 °F 90% 29.94 in 10.0 mi ESE 4.6 mph - N/A   Partly Cloudy
7:53 AM 80.1 °F 85.4 °F 75.9 °F 87% 29.95 in 10.0 mi SE 4.6 mph - 0.00 in   Partly Cloudy
8:53 AM 84.0 °F 92.6 °F 75.9 °F 76% 29.97 in 10.0 mi SE 3.5 mph - N/A   Clear
9:53 AM 87.1 °F 99.8 °F 78.1 °F 74% 29.99 in 10.0 mi WSW 3.5 mph - N/A   Scattered Clouds
10:53 AM 87.1 °F 98.8 °F 77.0 °F 72% 29.99 in 10.0 mi SW 9.2 mph - 0.00 in   Partly Cloudy
11:10 AM 88.0 °F 101.3 °F 78.1 °F 72% 30.00 in 10.0 mi WSW 8.1 mph - 0.00 in Rain , Thunderstorm Light Thunderstorms and Rain
11:35 AM 89.1 °F 103.2 °F 78.1 °F 70% 30.00 in 10.0 mi West 6.9 mph - 0.00 in Thunderstorm Clear
11:53 AM 86.0 °F 96.9 °F 77.0 °F 74% 29.99 in 10.0 mi WNW 5.8 mph - 0.00 in   Scattered Clouds
12:53 PM 88.0 °F 101.3 °F 78.1 °F 72% 29.99 in 10.0 mi West 4.6 mph - N/A   Clear
1:53 PM 87.1 °F 98.8 °F 77.0 °F 72% 29.97 in 10.0 mi WNW 10.4 mph - N/A   Clear
2:53 PM 87.1 °F 99.8 °F 78.1 °F 74% 29.96 in 10.0 mi West 10.4 mph - N/A   Overcast
3:53 PM 87.1 °F 99.8 °F 78.1 °F 74% 29.94 in 10.0 mi West 9.2 mph - N/A   Partly Cloudy
4:45 PM 87.1 °F 99.8 °F 78.1 °F 74% 29.95 in 10.0 mi West 11.5 mph - N/A   Scattered Clouds
4:53 PM 86.0 °F 98.3 °F 78.1 °F 77% 29.95 in 10.0 mi West 9.2 mph - N/A   Partly Cloudy
5:15 PM 84.9 °F 94.1 °F 75.9 °F 74% 29.96 in 10.0 mi SW 11.5 mph - N/A   Mostly Cloudy
5:48 PM 87.8 °F 99.7 °F 77.0 °F 70% 29.95 in 10.0 mi WNW 10.4 mph - N/A   Mostly Cloudy
5:53 PM 87.1 °F 99.8 °F 78.1 °F 74% 29.95 in 10.0 mi West 10.4 mph - N/A   Scattered Clouds
6:53 PM 82.0 °F 87.9 °F 73.9 °F 76% 29.94 in 10.0 mi NW 9.2 mph - 0.00 in   Partly Cloudy
7:53 PM 84.0 °F 93.7 °F 77.0 °F 79% 29.96 in 10.0 mi West 11.5 mph - N/A   Clear
8:53 PM 82.9 °F 92.8 °F 78.1 °F 85% 29.95 in 10.0 mi NNW 4.6 mph - N/A   Clear
9:53 PM 82.9 °F 91.8 °F 77.0 °F 82% 29.96 in 10.0 mi WNW 6.9 mph - N/A   Clear
10:53 PM 84.0 °F 93.7 °F 77.0 °F 79% 29.96 in 10.0 mi WNW 11.5 mph - N/A   Clear
11:53 PM 84.0 °F 92.6 °F 75.9 °F 76% 29.95 in 10.0 mi WNW 8.1 mph - N/A   Clear